sat.trackr.live / text

‹ back to catalog

STARLINK-36414

NORAD 67468 · 2026-008Z

PAYLOAD ACTIVE UNKNOWN

§ Identity

Operator
Country
US
Launch date
2026-01-14
Launch site
AFETR
Launch vehicle
Mass (kg)
RCS (m²)

Purposes: comms

External: N2YO · Heavens-Above · Gunter

§ Orbital elements

Epoch: 2026-09-19T05:18:49.677120Z

Period
94.27 min
Inclination
42.9994°
Eccentricity
0.0001677
Mean motion
15.27581956 rev/d
Perigee alt
481.9 km
Apogee alt
484.2 km
Semi-major
6,861.2 km
B*
2.4502e-4
RAAN
191.9614°
Arg perigee
263.6907°
Mean anomaly
96.3754°
Rev number
3,917

§ Raw data

STARLINK-364141 67468U 26008Z   26262.22140830  .00006487  00000+0  24502-3 0  99952 67468  42.9994 191.9614 0001677 263.6907  96.3754 15.27581956 39178

JSON: /api/v1/satellites/67468 · /tle

For live sub-satellite position, see the globe view (requires WebGL).

§ Visibility from observer

Set your observer location to see the next 7 days of passes ≥ 10°. The values pass through the URL so the page stays shareable.

No JS? Fill the form by hand. The geolocation button needs JavaScript.